Miscellaneous Local Product
Issued by NWS North Platte, NE

Home | Current Version | Previous Version | Text Only | Print | Product List | Glossary On
Versions: 1 2 3 4 5 6 7 8 9 10 11 12 13 14 15 16 17 18 19 20 21 22 23 24 25 26 27 28 29 30 31 32 33 34 35 36 37 38 39 40 41 42 43 44 45 46 47 48 49 50
000
AXUS43 KLBF 040410
MISLBF


WESTERN AND NORTH CENTRAL NEBRASKA HOURLY WEATHER ROUNDUP
NATIONAL WEATHER SERVICE NORTH PLATTE NE
1100 PM CDT MON AUG 03 2015

***STATIONS NOT REPORTING VARIABLES SUCH AS SKY/WEATHER OR
PRESSURE ARE PROVIDED BY THE NEBRASKA DEPARTMENT OF
ROADS...RAWS...AND APRS NETWORKS...AND ARE NOT UNDER
NATIONAL WEATHER SERVICE QUALITY CONTROL***

...OBSERVATIONS IN AND NEAR THE EASTERN PANHANDLE OF NEBRASKA...

CITY           SKY/WX    TMP DP  RH WIND       PRES   REMARKS
PINE RIDGE     CLOUDY    73  57  57 E16       29.95R
CHADRON        CLOUDY    74  62  66 N5        29.91S
ALLIANCE       CLOUDY    74  64  71 S10       29.98R
SIDNEY         MOCLDY    73  49  42 SW16      30.04R
BIG SPRINGS      N/A     74  67  78 S5          N/A
$$

...OBSERVATIONS IN NORTH CENTRAL NEBRASKA...

CITY           SKY/WX    TMP DP  RH WIND       PRES   REMARKS
THEDFORD       PTCLDY    71  58  64 E8        29.99S
AINSWORTH      MOCLDY    70  61  72 E9        29.99S
O`NEILL        MOCLDY    72  65  78 SE5       30.00S
ORD            MOCLDY    70  64  81 E6        29.97S
BROKEN BOW     MOCLDY    72  63  73 E7        29.99R
SPRINGVIEW       N/A     70  63  79 E3          N/A
CHAMBERS         N/A     69  61  76 CALM        N/A
EWING            N/A     69  64  85 CALM        N/A
$$

...OBSERVATIONS IN SOUTHWEST NEBRASKA AND FAR NORTHEAST COLORADO...

CITY           SKY/WX    TMP DP  RH WIND       PRES   REMARKS
WRAY           FAIR      65  52  62 W3        30.01S
HOLYOKE        FAIR      70  54  56 SW6       30.01S
IMPERIAL       MOCLDY    74  55  51 W5        29.98R
OGALLALA       PTCLDY    73  68  83 CALM      29.98R
NORTH PLATTE   CLOUDY    73  69  87 E14       29.97R
MCCOOK         CLOUDY    76  71  85 NE6       29.95R
LEXINGTON      CLOUDY    73  68  84 E9        29.97S
PAXTON           N/A     72  67  84 CALM        N/A
BRADY            N/A     72  67  86 NE5         N/A
CALLAWAY         N/A     70  67  92 E12         N/A
$$

...NORTH PLATTE AREA...

CITY           SKY/WX    TMP DP  RH WIND       PRES   REMARKS
AIRPORT        CLOUDY    73  69  87 E14       29.97R
DOWNTOWN         N/A     74  69  86 E5G13       N/A
HILLCREST        N/A     73  69  89 E14         N/A
$$

...SOME WEATHER OBSERVATIONS FROM AROUND THE REGION...

CITY           SKY/WX    TMP DP  RH WIND       PRES   REMARKS
DENVER         MOCLDY    65  51  60 S9        30.09F
LARAMIE        LGT RAIN  56  50  80 S20G25    30.24R
CHEYENNE       CLOUDY    68  49  50 S16G22    30.14R
SCOTTSBLUFF    MOCLDY    72  56  57 SE6       29.99R
RAPID CITY     MOCLDY    71  59  65 E10       29.99R
PIERRE         MOCLDY    69  56  62 SE7       29.95R
WINNER         MOCLDY    71  59  65 SE6       29.97R
SIOUX FALLS    PTCLDY    64  60  87 NE3       29.98R
OMAHA          CLOUDY    74  65  73 E6        29.97R
GRAND ISLAND   PTCLDY    71  64  78 E9        29.98R
KANSAS CITY    PTCLDY    76  68  76 E7        29.95R
WICHITA        PTCLDY    80  69  69 S9        29.94R
HAYS           MOCLDY    81  64  57 S10       29.94R
LIBERAL        CLOUDY    73  66  78 SE17        N/A
GOODLAND       MOCLDY    73  56  54 SE7       30.01R
$$



USA.gov is the U.S. government's official web portal to all federal, state and local government web resources and services.